EHI
0 0 0 0 0 0 0 0 0 0 2 8 16 28 37 42 48 51 49 47 48 49 49 49 49 48 47 45 41 34 29 27 26 25 22 18 16 17 17 12 7 6 7 8
0 0 0 0 0 0 0 0 0 1 3 7 17 29 38 43 46 48 47 47 49 50 50 49 48 48 46 44 39 33 28 27 27 26 23 20 19 19 16 12 8 6 7 8
0 0 0 0 0 0 1 1 1 3 6 12 22 33 41 45 46 46 47 49 50 51 51 49 48 47 44 40 36 33 30 28 27 26 24 22 22 19 15 12 8 6 6 7
0 0 0 0 0 1 2 2 2 6 12 19 27 35 42 46 49 49 50 50 49 50 52 50 48 45 41 36 33 33 32 30 26 24 24 23 21 18 13 9 7 6 5 5
0 0 0 0 1 3 4 3 4 9 16 23 31 37 41 46 51 51 51 51 50 49 52 51 46 43 39 35 31 31 31 29 24 22 22 21 18 15 10 7 5 4 3 3
0 0 0 1 3 4 4 5 8 13 18 24 32 37 39 45 52 53 53 55 54 53 53 51 46 43 40 33 29 28 29 28 24 21 20 18 16 13 9 6 5 4 4 4
0 0 0 1 4 4 4 7 13 18 21 27 35 40 43 49 54 55 56 58 58 57 54 50 46 45 40 31 26 24 24 24 21 19 16 13 12 10 9 7 6 5 4 3
0 0 1 3 5 6 8 14 22 27 30 34 41 48 51 54 57 57 56 56 57 56 52 47 44 43 37 28 22 19 20 19 17 14 11 8 7 6 6 6 6 5 4 2
4 4 5 7 9 13 18 24 31 36 38 42 47 52 54 55 57 57 56 54 53 52 46 41 40 38 32 24 19 18 18 15 11 8 5 3 3 3 2 2 4 3 2 2
11 12 14 15 16 20 24 29 34 38 40 43 48 51 52 52 53 54 54 52 50 47 42 36 34 31 24 18 16 17 16 12 7 3 1 0 1 1 0 0 1 1 1 1
15 18 21 21 20 23 25 28 33 38 40 42 45 48 49 48 48 48 49 47 45 42 36 32 28 24 18 14 14 15 14 10 5 2 1 0 0 0 0 0 0 0 0 0
14 16 19 20 20 21 22 23 28 35 40 42 43 43 43 42 41 41 41 40 39 35 30 27 25 20 14 12 12 13 12 8 3 1 0 0 0 0 0 0 0 0 0 0
11 13 16 18 18 18 19 20 24 30 37 40 39 37 35 35 34 33 32 32 30 27 22 20 19 16 12 10 10 11 9 6 2 0 0 0 0 0 0 0 0 0 0 0
7 9 12 14 16 18 18 21 24 27 31 33 33 30 27 27 27 25 23 22 20 18 16 13 12 11 9 7 7 8 7 4 2 0 0 0 0 0 0 0 0 0 0 0
5 6 7 9 12 15 17 20 22 22 24 25 24 22 20 19 19 17 15 14 13 13 13 12 10 8 6 6 6 6 6 5 3 1 0 0 0 0 0 0 0 0 0 0
3 4 4 5 7 9 13 16 17 17 17 17 16 15 14 14 13 11 10 9 10 12 11 10 9 8 6 6 6 6 6 5 3 1 0 0 0 0 0 0 0 0 0 0
1 3 3 3 3 5 8 12 14 14 13 12 11 11 11 11 10 10 8 7 7 8 8 7 7 7 6 6 6 5 4 4 3 1 0 0 0 0 0 0 0 0 0 0
2 3 3 3 3 3 5 9 11 11 11 11 10 9 10 10 9 9 7 5 3 4 4 4 4 4 4 4 4 4 3 3 3 2 1 0 0 0 0 0 0 0 0 0
2 3 3 3 2 2 4 6 8 9 10 9 8 8 8 8 7 6 4 2 1 1 1 1 3 3 3 3 3 3 3 3 3 3 2 0 0 0 0 0 0 0 0 0
1 2 3 3 2 2 3 5 7 8 8 7 6 5 5 4 3 2 1 0 0 0 0 1 3 3 2 2 2 3 3 3 3 2 1 0 0 0 0 0 0 0 0 0
0 1 2 2 2 1 2 5 7 7 5 3 3 2 2 1 0 0 0 0 0 0 0 2 3 3 1 0 1 3 3 3 3 1 0 0 0 0 0 0 0 0 0 0
0 0 1 1 1 1 2 4 5 5 2 1 1 1 0 0 0 0 0 0 0 0 0 1 2 2 1 0 1 2 3 3 2 1 0 0 0 0 0 0 0 0 0 0
0 0 0 0 0 1 2 3 3 2 1 0 0 0 0 0 0 0 0 0 0 0 0 0 1 1 0 0 1 1 2 2 1 0 0 0 0 0 0 0 0 0 0 0
0 0 0 0 0 1 2 3 2 1 0 0 0 0 0 0 0 0 0 0 0 0 0 0 0 0 0 0 0 0 1 1 1 0 0 0 0 0 0 0 0 0 0 0
0 0 0 0 0 1 2 3 2 0 0 0 0 0 0 0 0 0 0 0 0 0 0 0 0 0 0 0 0 0 0 0 0 0 0 0 0 0 0 0 0 0 0 0
0 0 0 0 0 0 1 2 2 0 0 0 0 0 0 0 0 0 0 0 0 0 0 0 0 0 0 0 0 0 0 0 0 0 0 0 0 0 0 0 0 0 0 0
0 0 0 0 0 0 1 2 1 0 0 0 0 0 0 0 0 0 0 0 0 0 0 0 0 0 0 0 0 0 0 0 0 0 0 0 0 0 0 0 0 0 0 0
Wind_Speed
5 5 2 3 5 5 6 8 8 8 8 10 9 10 11 10 10 9 8 9 9 9 9 8 8 7 8 7 7 8 7 7 6 5 5 5 5 5 5 5 6 5 6 5
2 2 2 4 5 6 6 6 6 5 6 6 5 6 8 10 12 12 10 10 9 9 10 10 10 9 8 8 7 8 8 7 6 6 6 6 5 5 5 6 5 6 6 5
2 3 3 5 6 5 5 5 8 8 8 5 5 8 10 10 11 13 12 12 11 10 9 9 9 10 10 8 7 8 8 7 7 6 6 6 6 6 6 6 6 6 5 5
1 2 4 10 5 5 4 5 6 6 7 10 10 8 7 9 11 11 11 11 11 9 9 8 8 8 9 9 8 8 8 8 7 7 7 6 6 6 5 5 5 5 5 5
3 2 5 7 4 3 3 4 3 7 7 6 7 6 2 3 7 10 11 11 10 10 10 10 10 10 10 8 8 8 8 8 7 7 7 7 6 6 5 5 5 5 4 5
4 3 6 8 5 2 6 3 3 7 9 8 8 5 4 3 6 7 8 9 9 9 10 10 10 10 10 9 8 7 7 7 7 7 7 7 6 5 5 5 5 5 4 4
4 3 7 7 5 2 5 8 4 5 8 8 5 6 6 6 7 9 9 9 9 9 9 10 10 10 10 9 8 7 7 8 7 6 7 7 6 5 6 5 5 5 5 4
4 4 8 6 4 2 7 4 3 3 6 6 6 6 8 9 9 10 10 10 9 9 8 8 9 11 10 8 7 7 7 8 7 6 6 6 6 5 5 6 6 5 5 4
7 8 6 4 2 3 2 3 1 2 5 8 8 8 8 8 9 9 10 9 9 10 9 7 7 10 11 9 8 8 8 8 7 7 6 5 6 6 5 4 4 4 4 3
1 4 3 3 2 4 3 3 2 3 6 8 9 9 9 8 8 9 8 9 8 10 9 7 6 8 9 10 9 9 9 8 7 7 6 5 4 4 4 4 4 4 4 3
1 3 4 4 2 3 3 4 5 5 5 7 10 9 8 8 8 8 8 7 8 9 9 8 7 8 8 10 10 9 9 8 7 6 6 5 5 3 3 2 3 5 4 4
4 5 2 4 3 1 2 2 2 5 6 6 8 10 8 7 7 8 9 8 8 8 9 8 8 8 8 8 9 10 8 7 6 6 5 5 5 5 9 5 5 5 6 5
4 3 3 4 2 2 2 1 2 5 7 7 6 7 8 7 7 8 9 9 9 8 8 8 9 8 7 7 8 8 8 7 6 6 6 5 5 5 5 5 8 7 6 6
2 1 1 2 2 1 3 3 4 6 5 7 6 6 7 7 8 9 9 9 9 9 8 8 8 7 6 7 8 8 7 8 7 6 5 5 5 4 4 5 4 2 3 4
2 1 1 2 1 1 3 5 6 6 7 7 7 7 8 9 9 8 8 9 10 9 8 8 8 6 5 7 8 8 7 5 5 5 5 5 5 4 4 4 4 3 2 2
2 1 2 2 2 1 3 5 7 6 6 7 7 6 7 8 8 7 7 9 10 9 8 8 7 6 6 7 8 6 5 8 7 5 5 5 5 5 4 4 4 3 3 2
2 1 2 1 1 2 2 4 6 7 7 7 7 8 8 8 8 7 6 6 7 7 6 6 6 5 6 7 7 5 5 6 9 6 5 5 5 5 5 5 4 3 2 3
4 4 4 3 3 3 3 4 5 8 9 9 9 9 9 8 8 7 6 6 7 6 5 5 5 5 5 5 6 5 5 5 4 5 5 5 5 5 5 5 5 4 2 2
2 3 3 3 3 4 5 6 6 7 9 9 9 8 8 7 7 7 7 7 7 6 4 4 7 6 4 5 7 5 6 6 5 4 4 6 5 4 4 5 5 4 4 3
2 2 4 4 3 4 5 6 8 8 8 8 8 8 8 7 6 7 7 5 4 4 5 6 6 5 5 5 7 5 5 5 5 5 5 5 5 5 4 5 5 4 4 4
3 4 5 4 4 4 5 6 7 8 7 7 8 8 8 7 6 6 6 4 2 4 6 7 5 4 4 5 7 5 5 5 4 4 5 5 4 4 4 4 4 4 4 3
3 4 4 4 4 4 4 4 6 7 7 6 6 7 7 7 6 5 4 3 4 6 5 4 4 5 6 7 5 5 5 5 4 4 4 4 4 4 4 4 4 4 4 4
3 3 3 3 4 4 4 4 5 6 6 7 7 7 7 6 5 6 4 2 4 6 5 4 6 9 9 6 4 4 5 5 4 4 4 4 4 4 4 5 4 4 4 4
3 3 3 3 4 5 4 3 3 4 5 5 5 6 6 5 3 3 3 6 7 8 5 5 9 9 8 4 4 4 4 4 4 4 4 4 4 4 4 4 4 4 4 4
2 3 3 3 3 2 3 3 4 4 4 4 4 4 4 4 4 4 4 6 8 8 5 6 8 8 5 4 4 4 3 3 4 4 4 4 4 4 4 4 4 4 4 4
2 2 1 2 2 2 2 3 3 3 3 4 3 3 3 3 4 4 4 5 7 7 5 4 5 5 4 4 4 4 4 4 4 4 4 4 4 5 4 4 5 4 4 3
1 1 1 1 1 1 2 2 3 3 4 5 5 4 4 4 4 5 6 5 5 4 4 4 4 4 4 4 4 3 3 3 3 4 4 4 4 4 4 5 4 4 3 3
Wind_Direction
214 233 249 249 247 219 179 177 178 213 206 211 193 173 170 159 145 142 146 148 153 153 149 142 140 141 141 141 141 142 137 134 134 128 120 113 104 97 92 88 87 84 83 76
300 302 314 294 274 236 213 188 185 185 234 221 196 157 156 160 155 156 160 156 153 154 151 150 150 147 141 142 145 140 137 136 131 124 118 113 108 101 94 88 83 82 81 80
277 319 8 279 246 221 220 206 176 197 219 177 157 166 166 161 158 161 163 161 159 159 156 154 150 146 145 141 138 135 134 131 128 126 121 119 115 103 98 94 88 83 82 83
127 51 226 245 246 196 201 236 193 181 179 170 174 174 167 159 156 159 162 161 159 158 152 145 138 135 134 132 132 135 133 130 129 127 121 117 112 108 102 96 96 92 83 82
124 177 271 285 273 177 165 270 215 160 152 146 132 91 60 163 158 163 164 161 161 158 150 140 138 138 133 131 133 133 135 136 136 132 128 126 123 118 111 105 96 88 85 86
134 165 227 248 274 204 116 268 259 148 145 146 125 131 219 192 146 139 138 142 145 142 136 137 143 141 134 134 136 142 141 138 134 133 134 133 131 124 113 110 108 100 86 80
159 204 256 259 289 66 137 224 241 165 153 151 163 180 174 138 131 130 129 131 133 133 137 141 142 136 134 136 147 144 132 127 125 124 127 127 122 121 121 116 108 100 89 71
159 196 249 298 356 164 216 222 190 164 146 135 133 127 126 124 128 127 128 130 130 125 123 128 135 133 131 137 138 130 128 124 122 121 122 122 117 114 114 118 112 104 97 80
189 213 238 281 247 242 167 136 139 136 132 129 126 131 129 130 129 129 132 132 129 126 121 120 129 135 134 136 131 126 126 122 119 110 100 109 115 116 111 110 116 115 112 103
216 263 281 313 352 18 57 89 94 127 132 131 128 131 127 132 132 133 131 129 128 127 128 129 127 127 133 133 130 131 131 125 119 111 103 95 97 109 120 126 130 131 127 124
300 294 349 343 8 25 48 56 67 84 113 130 130 132 130 134 137 135 129 127 129 132 133 136 130 128 137 136 136 131 128 124 118 113 115 103 85 73 107 125 156 153 154 152
227 235 219 252 270 87 84 66 83 106 110 121 126 131 128 132 135 133 132 130 130 131 133 136 133 132 138 139 141 139 134 132 131 128 123 118 110 80 51 68 93 117 135 140
227 250 239 255 259 136 134 131 89 99 123 123 120 128 128 128 130 128 129 131 133 134 135 135 134 134 138 141 140 140 141 140 137 138 139 136 134 128 113 59 59 77 104 121
249 44 334 295 264 206 129 106 94 90 98 112 118 122 123 121 123 126 131 134 130 127 131 135 135 140 146 144 139 139 140 144 143 145 147 145 146 145 142 139 122 73 55 95
311 74 225 291 315 77 114 114 108 107 107 104 113 122 128 128 128 126 123 124 125 126 130 131 133 138 143 138 137 140 138 140 144 144 145 143 141 137 134 131 129 126 103 68
309 15 90 59 28 107 127 119 121 125 121 112 111 114 116 120 121 118 119 125 129 134 137 135 138 141 136 137 137 136 140 145 144 143 142 142 142 141 141 140 140 144 151 156
160 141 126 142 175 171 142 129 132 136 128 124 125 120 116 114 112 113 117 121 126 131 134 135 140 140 136 139 141 141 142 146 142 137 141 146 148 151 151 148 151 156 167 165
179 173 160 159 177 156 136 123 132 138 134 133 130 127 126 131 133 134 131 124 118 115 118 128 133 132 131 138 141 141 140 140 140 141 143 144 146 150 150 150 150 149 146 140
124 127 119 125 141 144 140 135 131 122 125 130 131 132 133 135 137 134 129 127 129 130 136 129 128 126 130 137 136 134 136 137 135 137 140 141 139 140 146 149 151 155 151 143
80 102 102 98 92 105 119 123 125 122 124 126 124 121 122 128 133 132 131 129 139 146 144 138 133 127 129 132 131 131 136 141 143 143 143 145 145 146 149 152 156 158 154 153
106 92 85 85 87 91 106 117 120 120 123 129 135 136 135 133 133 133 136 132 134 135 136 137 134 135 135 134 130 131 133 138 141 144 145 147 147 146 149 151 153 154 151 153
88 91 94 97 94 88 89 103 115 120 120 125 129 129 128 128 126 121 124 143 152 143 138 136 133 134 133 130 126 132 137 141 139 138 141 144 145 146 147 147 148 149 147 149
78 84 92 96 99 95 87 96 115 128 134 139 140 140 141 144 146 146 150 158 146 142 136 138 138 134 131 124 127 131 136 140 139 142 146 148 148 149 148 147 147 146 147 151
87 89 89 91 94 96 95 94 107 122 131 135 143 147 146 142 138 146 145 145 145 141 134 137 138 140 136 126 127 131 133 138 138 142 146 144 144 146 146 144 144 146 149 154
91 91 92 97 105 123 136 122 112 117 125 125 127 131 137 141 146 150 141 144 146 141 134 141 145 146 141 133 135 137 137 140 142 144 145 144 146 146 145 145 147 149 151 157
95 111 122 129 141 146 140 132 136 145 140 132 132 131 125 123 128 131 131 142 145 142 138 141 148 152 149 144 141 143 145 149 152 151 151 148 149 149 150 151 150 152 153 151
90 110 120 110 100 130 134 134 143 152 153 147 143 146 142 138 136 136 134 137 139 138 134 134 136 143 145 141 139 138 140 145 146 145 146 147 148 150 153 153 152 149 144 139